DAL349 MMPR-KSEA

Flight info

Callsign DAL349
Flight time N/A
Altitude 34000
Route BOBDI1B BOBDI UT4 LMM UJ3 HMO J92 SUVLI/N0455F360 J92 TUS DCT BAYTA DCT CORKR Q35 KOATA DCT PDT CHINS5
Aircraft A320/M-SDE3FGHIRWY/LB1

Departure

Time 2026-04-28 21:25
Airport Puerto Vallarta International Airport (MMPR)

Arrival

Time N/A
Airport Seattle–Tacoma International Airport (KSEA)
Time Latitude Longitude Altitude Speed Heading
2026-04-28 21:06 20.68048 -105.24652 29 ft 0 kts 228°
2026-04-28 21:15 20.68062 -105.24636 29 ft 4 kts 227°
2026-04-28 21:15 20.68079 -105.24614 29 ft 4 kts 248°
2026-04-28 21:15 20.68081 -105.24588 29 ft 4 kts 298°
2026-04-28 21:16 20.68072 -105.24576 29 ft 1 kts 317°
2026-04-28 21:16 20.68071 -105.24575 29 ft 0 kts 317°
2026-04-28 21:19 20.68074 -105.24578 29 ft 2 kts 317°
2026-04-28 21:19 20.68083 -105.24586 29 ft 1 kts 317°
2026-04-28 21:19 20.68087 -105.24591 29 ft 2 kts 317°
2026-04-28 21:20 20.68106 -105.24609 29 ft 5 kts 317°
2026-04-28 21:20 20.68136 -105.24639 29 ft 7 kts 317°
2026-04-28 21:20 20.68175 -105.24677 29 ft 8 kts 316°
2026-04-28 21:20 20.68229 -105.24700 29 ft 9 kts
2026-04-28 21:21 20.68298 -105.24679 29 ft 11 kts 17°
2026-04-28 21:21 20.68377 -105.24653 29 ft 13 kts 16°
2026-04-28 21:21 20.68465 -105.24621 29 ft 14 kts 27°
2026-04-28 21:21 20.68539 -105.24548 29 ft 15 kts 46°
2026-04-28 21:22 20.68615 -105.24460 29 ft 17 kts 47°
2026-04-28 21:22 20.68696 -105.24368 29 ft 15 kts 47°
2026-04-28 21:22 20.68764 -105.24290 29 ft 13 kts 47°
2026-04-28 21:22 20.68811 -105.24258 29 ft 10 kts 10°
2026-04-28 21:23 20.68881 -105.24295 28 ft 8 kts 319°
2026-04-28 21:23 20.68917 -105.24331 28 ft 6 kts 313°
2026-04-28 21:23 20.68921 -105.24365 29 ft 4 kts 260°
2026-04-28 21:23 20.68909 -105.24386 29 ft 3 kts 229°
2026-04-28 21:24 20.68890 -105.24406 29 ft 6 kts 226°
2026-04-28 21:24 20.68749 -105.24564 30 ft 63 kts 226°
2026-04-28 21:24 20.68308 -105.25079 28 ft 122 kts 227°
2026-04-28 21:24 20.67620 -105.25870 83 ft 163 kts 227°
2026-04-28 21:25 20.66800 -105.26779 546 ft 175 kts 225°
2026-04-28 21:25 20.65883 -105.27739 1001 ft 192 kts 227°
2026-04-28 21:25 20.64954 -105.28748 1756 ft 189 kts 228°
2026-04-28 21:25 20.64087 -105.29819 2131 ft 199 kts 245°
2026-04-28 21:26 20.63915 -105.31293 2486 ft 208 kts 285°
2026-04-28 21:26 20.64679 -105.32620 2896 ft 219 kts 321°
2026-04-28 21:26 20.65572 -105.33155 3172 ft 228 kts 338°
2026-04-28 21:26 20.67096 -105.33670 3791 ft 226 kts 344°
2026-04-28 21:27 20.69108 -105.34220 4648 ft 224 kts 346°
2026-04-28 21:27 20.70128 -105.34490 5024 ft 224 kts 346°
2026-04-28 21:27 20.71641 -105.34899 5564 ft 224 kts 346°
2026-04-28 21:27 20.73127 -105.35312 6112 ft 224 kts 345°
2026-04-28 21:28 20.74634 -105.35740 6672 ft 223 kts 345°
2026-04-28 21:28 20.76150 -105.36179 6976 ft 230 kts 345°
2026-04-28 21:28 20.77686 -105.36628 7013 ft 229 kts 345°
2026-04-28 21:28 20.79209 -105.37088 7566 ft 223 kts 343°
2026-04-28 21:29 20.80702 -105.37559 7991 ft 231 kts 344°
2026-04-28 21:29 20.82297 -105.38028 8268 ft 244 kts 345°
2026-04-28 21:29 20.83997 -105.38520 8488 ft 262 kts 345°
2026-04-28 21:29 20.85776 -105.39038 8973 ft 266 kts 345°
2026-04-28 21:30 20.87609 -105.39449 9577 ft 270 kts 356°
2026-04-28 21:30 20.89511 -105.39568 9904 ft 275 kts 357°
2026-04-28 21:30 20.91442 -105.39676 10088 ft 291 kts 357°
2026-04-28 21:30 20.93542 -105.39794 10206 ft 312 kts 357°
2026-04-28 21:31 20.95796 -105.39921 10319 ft 333 kts 357°
2026-04-28 21:31 20.98188 -105.40057 10433 ft 353 kts 357°
2026-04-28 21:31 21.00676 -105.40203 10608 ft 368 kts 356°
2026-04-28 21:31 21.03214 -105.40729 11070 ft 373 kts 339°
2026-04-28 21:32 21.05482 -105.42114 11535 ft 377 kts 319°
2026-04-28 21:32 21.07404 -105.43994 12059 ft 380 kts 316°
2026-04-28 21:32 21.09337 -105.45939 12618 ft 382 kts 316°